Regional Weather Roundup
Issued by NWS

Home | Current Version | Previous Version | Graphics & Text | Print | Product List | Glossary On
Versions: 1 2 3 4 5 6 7 8 9 10 11 12 13 14 15 16 17 18 19 20 21 22 23 24 25 26 27 28 29 30 31 32 33 34 35 36 37 38 39 40 41 42 43 44 45 46 47 48 49 50
000
ASUS43 KFSD 171110
RWRSD

WEATHER ROUNDUP FOR SOUTH DAKOTA
NATIONAL WEATHER SERVICE SIOUX FALLS SD
600 AM CDT WED SEP 17 2014

NOTE: "FAIR" INDICATES FEW OR NO CLOUDS BELOW 12,000 FEET WITH NO
SIGNIFICANT WEATHER AND/OR OBSTRUCTIONS TO VISIBILITY.


SDZ001>005-009-010-012>017-171200-
NORTHWEST AND NORTH CENTRAL SOUTH DAKOTA

CITY           SKY/WX    TMP DP  RH WIND       PRES   REMARKS
BUFFALO          N/A     50  43  77 NE10      29.88S
FAITH            N/A     50  47  89 NE8       29.92S
MOBRIDGE       CLEAR     46  45  96 NE3       29.90S
$$

SDZ012>016-024>037-041>051-057-063-072>074-171200-
SOUTHWEST AND SOUTH CENTRAL SOUTH DAKOTA

CITY           SKY/WX    TMP DP  RH WIND       PRES   REMARKS
RAPID CTY ARPT CLEAR     52  40  63 NW8       29.94S
PIERRE         CLEAR     47  46  97 N5        29.88S
CUSTER         CLEAR     49  31  49 NW5       30.07F
ELLSWORTH AFB  CLEAR     55  40  55 NW6       29.95R
PHILIP         CLEAR     45  42  89 W3        29.90S
PINE RIDGE     PTCLDY    52  49  89 S3        29.95S
WINNER         FAIR      51  50  96 S5        29.89F
$$

SDZ004>011-016>023-039-040-171200-
NORTHEAST SOUTH DAKOTA

CITY           SKY/WX    TMP DP  RH WIND       PRES   REMARKS
ABERDEEN       FOG       41  41 100 E3        29.91S VSB 1/2
WATERTOWN      CLEAR     49  47  93 CALM      29.91S
SISSETON         N/A     51  50  96 W5        29.89S
$$

SDZ017-020-022-023-036>040-048>070-171200-
SOUTHEAST SOUTH DAKOTA

CITY           SKY/WX    TMP DP  RH WIND       PRES   REMARKS
SIOUX FALLS    PTCLDY    51  48  89 SE3       29.91F
HURON          CLEAR     48  47  96 SE3       29.89F
CHAMBERLAIN    FOG       48  48 100 CALM      29.89F VSB 1/4
MITCHELL       CLEAR     48  47  96 SE5       29.90S
YANKTON        CLEAR     48  46  93 SE5       29.92S
$$

ABBREVIATIONS USED IN REMARKS
   TC - TEMPERATURE IN CELSIUS
  WCI - WIND CHILL INDEX
   HX - HEAT INDEX
  VSB - VISIBILITY




USA.gov is the U.S. government's official web portal to all federal, state and local government web resources and services.